This is the latest recevied weather packets stored in our database for station/object KT2UU-13. If no packets are shown the sender has not sent any weather packets the latest 10 day(s).
| Time | Temp. | Humidity | Pressure | Rain* | Wind** | Luminosity | Snow |
|---|---|---|---|---|---|---|---|
| 1778101218 | 20.56° C | 83% | 1013.4 hPa | 0 mm | - | - | - |
| 1778100915 | 21.11° C | 81% | 1013.4 hPa | 0 mm | - | - | - |
| 1778100610 | 21.67° C | 81% | 1013.2 hPa | 0 mm | - | - | - |
| 1778100309 | 22.78° C | 80% | 1013.3 hPa | 0 mm | - | - | - |
| 1778100005 | 25° C | 80% | 1013.3 hPa | 0 mm | - | - | - |
| 1778099703 | 25° C | 80% | 1013.2 hPa | 0 mm | - | - | - |
| 1778099399 | 25° C | 80% | 1013.2 hPa | 0 mm | - | - | - |
| 1778099097 | 25° C | 79% | 1013.2 hPa | 0 mm | - | - | - |
| 1778098792 | 25° C | 79% | 1013.1 hPa | 0 mm | - | - | - |
| 1778098491 | 25° C | 79% | 1013.3 hPa | 0 mm | - | - | - |
| 1778098187 | 24.44° C | 79% | 1013.4 hPa | 0 mm | - | - | - |
| 1778097883 | 24.44° C | 80% | 1013.4 hPa | 0 mm | - | - | - |
| 1778097580 | 24.44° C | 81% | 1013.5 hPa | 0 mm | - | - | - |
| 1778097277 | 25° C | 80% | 1013.5 hPa | 0 mm | - | - | - |
| 1778096973 | 25° C | 79% | 1013.2 hPa | 0 mm | - | - | - |
| 1778096671 | 25° C | 78% | 1013.7 hPa | 0 mm | - | - | - |
| 1778096368 | 24.44° C | 79% | 1013.6 hPa | 0 mm | - | - | - |
| 1778096065 | 24.44° C | 80% | 1013.6 hPa | 0 mm | - | - | - |
| 1778095761 | 24.44° C | 81% | 1013.9 hPa | 0 mm | - | - | - |
| 1778095458 | 24.44° C | 80% | 1013.9 hPa | 0 mm | - | - | - |
| 1778095155 | 25° C | 79% | 1013.7 hPa | 0 mm | - | - | - |
| 1778094850 | 25° C | 79% | 1013.9 hPa | 0 mm | - | - | - |
| 1778094548 | 24.44° C | 81% | 1013.9 hPa | 0 mm | - | - | - |
| 1778094244 | 24.44° C | 81% | 1014.3 hPa | 0 mm | - | - | - |
| 1778093941 | 23.89° C | 81% | 1014.1 hPa | 0 mm | - | - | - |
* Rain latest hour (hover to see other rain measurements)
** Current wind speed in m/s (hover to see current wind gust speed)